Pacific - Georgia Basin: Past 24 Hour Conditions

 

Vancouver Int'l Airport

08:00 PM PDT 20 October 2014
This table is a summary of hourly weather conditions for the past 24 hours.
Date / Time
(PDT)
Wind(knots) Conditions Visibility(km) Pressure(kPa) Air tempC) Relative humidity(%) Dew pointC)
20 October 2014
20:00 SSE 2 Light Rain 16 100.7 14 90 12
19:00 ESE 6 Mostly Cloudy 24 100.7 14 87 12
18:00 ESE 6 Partly Cloudy 24 100.6 15 86 12
17:00 ESE 9 Mostly Cloudy 24 100.7 16 80 12
16:00 ESE 9 gust 16 Partly Cloudy 32 100.7 17 79 13
15:00 SE 12 Partly Cloudy 32 100.7 17 79 14
14:00 ESE 10 Partly Cloudy 24 100.6 16 79 12
13:00 SE 10 Mostly Cloudy 24 100.6 16 83 13
12:00 ESE 9 Mostly Cloudy 24 100.6 16 83 13
11:00 ESE 7 Mostly Cloudy 19 100.6 17 85 14
10:00 ESE 9 Mostly Cloudy 16 100.6 15 95 14
9:00 E 8 Mostly Cloudy 16 100.5 14 96 13
8:00 E 7 Light Rainshower 13 100.5 14 97 13
7:00 ESE 9 Light Rainshower 16 100.5 14 95 13
6:00 SE 7 Mostly Cloudy 24 100.5 14 94 13
5:00 E 9 Mostly Cloudy 24 100.4 15 94 14
4:00 E 8 Light Rain 19 100.4 14 96 14
3:00 ESE 6 Light Rain 24 100.4 14 97 13
2:00 ESE 8 Drizzle 24 100.5 14 95 13
1:00 E 3 Light Rain 24 100.5 15 97 14
0:00 S 3 Rain 16 100.5 14 96 14
19 October 2014
23:00 N 4 Light Rain 24 100.4 15 93 14
22:00 NNE 3 Light Rain 24 100.4 15 93 14
21:00 NW 7 Light Rain 19 100.4 15 92 13
20:00 E 4 Mostly Cloudy 24 100.4 17 77 13
 
Map of Pacific - Georgia Basin marine weather areas Tsawwassen Ferry Terminal Sentry Shoal - 46131 Halibut Bank - 46146 La Perouse Bank - 46206 Discovery Island Esquimalt Harbour Kelp Reefs Malahat Race Rocks Lightstation Saturna Island Sheringham Point University of Victoria Victoria Gonzales Victoria Int'l Airport Ballenas Islands Campbell River Airport Comox Airport Entrance Island Fanny Island Nanaimo Airport Sisters Islets Estevan Point Tofino Airport Grief Point Powell River Airport Sechelt Point Atkinson Sand Heads Lightstation Vancouver Harbour Vancouver Int'l Airport West Vancouver Port Alberni Howe Sound - Pam Rocks Squamish Airport